Regional Weather Roundup
Issued by NWS

Home | Current Version | Previous Version | Text Only | Print | Product List | Glossary Off
Versions: 1 2 3 4 5 6 7 8 9 10 11 12 13 14 15 16 17 18 19 20 21 22 23 24 25 26 27 28 29 30 31 32 33 34 35 36 37 38 39 40 41 42 43 44 45 46 47 48 49 50

000
ASUS43 KFSD 290310
RWRSD

WEATHER ROUNDUP FOR SOUTH DAKOTA
NATIONAL WEATHER SERVICE SIOUX FALLS SD
1000 PM CDT WED JUN 28 2017

NOTE: "FAIR" INDICATES FEW OR NO CLOUDS BELOW 12,000 FEET WITH NO
SIGNIFICANT WEATHER AND/OR OBSTRUCTIONS TO VISIBILITY.


SDZ001>005-009-010-012>017-290400-
NORTHWEST AND NORTH CENTRAL SOUTH DAKOTA

CITY           SKY/WX    TMP DP  RH WIND       PRES   REMARKS
BUFFALO          N/A     69  46  43 W12       29.78R
FAITH            N/A     71  36  27 E13       29.73F
MOBRIDGE       CLOUDY    64  42  44 NE8       29.73R
$$

SDZ012>016-024>037-041>051-057-063-072>074-290400-
SOUTHWEST AND SOUTH CENTRAL SOUTH DAKOTA

CITY           SKY/WX    TMP DP  RH WIND       PRES   REMARKS
RAPID CTY ARPT CLOUDY    63  50  62 N10       29.80F
PIERRE         CLOUDY    70  40  33 N12       29.71S
CUSTER         CLOUDY    57  48  72 NE8       29.90R
ELLSWORTH AFB  CLOUDY    64  51  62 NW6       29.79
PHILIP         MOCLDY    68  50  52 NW12      29.73R
PINE RIDGE     MOCLDY    74  52  46 E7        29.79R THUNDER
SPEARFISH      TSTM      55  54  94 SW8       29.93R
WINNER         FAIR      72  50  45 NE5       29.74R
$$

SDZ004>011-016>023-039-040-290400-
NORTHEAST SOUTH DAKOTA

CITY           SKY/WX    TMP DP  RH WIND       PRES   REMARKS
ABERDEEN       CLEAR     64  44  48 NW8       29.71R
WATERTOWN      CLEAR     64  57  78 N3        29.70R
BROOKINGS      CLEAR     67  55  65 NW7       29.71R
SISSETON         N/A     66  62  87 NW8       29.68R
$$

SDZ017-020-022-023-036>040-048>070-290400-
SOUTHEAST SOUTH DAKOTA

CITY           SKY/WX    TMP DP  RH WIND       PRES   REMARKS
SIOUX FALLS    PTCLDY    69  62  78 NW6       29.69R
HURON          CLEAR     68  48  48 N7        29.70R
CHAMBERLAIN    PTCLDY    75  48  38 CALM      29.72R
MITCHELL       CLEAR     70  50  49 NW8       29.69R
YANKTON        CLEAR     75  62  64 W5        29.69R
$$

ABBREVIATIONS USED IN REMARKS
   TC - TEMPERATURE IN CELSIUS
  WCI - WIND CHILL INDEX
   HX - HEAT INDEX
  VSB - VISIBILITY





USA.gov is the U.S. government's official web portal to all federal, state and local government web resources and services.